loading
|

THOR ABLESTAR DEB, 38521

Orbit data source: Space-Track

THOR ABLESTAR DEB, 38521 is space debris in LEO originally from a launch on Sat, 28 Sep 1963 UTC launched from the Air Force Western Test Range (AFWTR). Debris objects in space refer to the collection of defunct objects orbiting the Earth. Examples of debris include non-operational satellites, rocket bodies, and fragments generated from explosions, collisions, or faulty payload assembly.

Loading next visibility...
Loading greatness...
THOR ABLESTAR DEB details
Identifier
38521, 1963-038Q
Orbit
LEO
Last TLE update2 days ago
Origin
Flag of USUSN NAVAIR (US)
ManufacturerUnknown
Mission statusUnknown
MissionUnknown
Bus & MotorUnknown
MassUnknown
Launch date (UTC)
1963-09-28 (61 years ago)
Launch vehicleUnknown
Launch site
Air Force Western Test Range (AFWTR)
Object type
Payload
Rocket body
Debris
Radar Cross SectionSmall (<0.1 m²)

Expand to show TLE details & history

TLE from 2 days ago
0 THOR ABLESTAR DEB
1 38521U 63038Q   24259.50253653  .00000224  00000-0  36175-3 0  9993
2 38521  89.9934 334.5679 0041202  22.3765  40.6806 13.45271461549493
Epoch: 2024-09-15T12:03Z
Definitive object data (Epoch: 2024-09-15T12:03:39.156Z)
Latitude63.45085°
Longitude158.72292°
Altitude1,077.421 km
Speed7.331 km/s
True Right ascension22h 18m 19s
True Declination63° 19' 08"
Sunlit
Object was in daylight at TLE epoch
Predictive object data (real-time)
Latitude29.70357°
Longitude158.71191°
Altitude1,063.634 km
Speed7.337 km/s
Apparent Right ascension00h 31m 23s
Apparent Declination-2° 37' 11"
Sunlit
Object is in full shadow
Predictive observer data (real-time)
Local Sidereal Time15:37:06
Azimuth60.664° ENE
Elevation-33.878°
Doppler factor1
Orbital elements
Apogee1,117.52 km
Perigee1,056.006 km
Semi-major axis7,464.9 km
Eccentricity0.0041202
Inclination89.9934°
RAAN334.5679°
Arg. of periapsis22.3765°
True anomaly40.98957°
Mean anomaly40.6806°
Eccentric anomaly40.83496°
Mean motion3.36517 °/min
BSTAR0.00036175
Period106.98 mins
No data available

THOR ABLESTAR DEB Visibility forecast

Observer location: 39.9160978°, -105.1181434

THOR ABLESTAR DEB is not visible in the next 10 days
Span
Click to sort rows by Start time (UTC) header in descending order
Start Az.
Max El. time (UTC)
Max El. Az.
Max El.
End time (UTC)
End Az.